一网星座-0024星 (ONEWEB-0024 )

导读 | 星芒AI

ONEWEB-0024 是 OneWeb 卫星星座计划中的一颗低轨通信卫星,旨在为全球提供高速互联网服务。该卫星采用模块化设计,具备高容量通信能力,支持偏远地区和航空、航海等移动场景的网络接入。作为 OneWeb 扩展其卫星网络的一部分,ONEWEB-0024 与其他卫星协同工作,提升全球覆盖范围和网络稳定性,推动数字包容性发展。

基本信息
目录编号:
45137
目录名称:
ONEWEB-0024
国际标识:
2020-008G
轨道中心:
EARTH
卫星名称:
一网星座-0024星
卫星全名:
一网星座-0024星 (ONEWEB-0024 )
卫星状态:
在轨 (已飞行2081 天)
发射日期:
2020-02-06 UTC
国别 :
英国 (GB)
星等 :
--
轨道信息
数据来源 国际轨道数据
星历时间: 2025-10-18T05:57:27+0800
8小时前
查看轨道信息
半长轴: 7599.865km
偏心率: 0.000164
轨道倾角: 87.877°
近地点辐角 95.737°
升交点赤经 84.532°
平近点角 264.395°
近地点: 1220.483km
远地点: 1222.977km
周期: 109.893分钟
每日圈数: 13.103702
详细信息
平衡模式:
三轴稳定
覆盖范围:
全球
运营商:
一网卫星公司
运营商所在国:
英国
制造商(研发单位):
空客防务与航天公司
制造商所在国:
法国大都会
使用方式:
暂无
卫星简介
OneWeb卫星网络由648颗重约125公斤的微型卫星组成,运行在1200公里的轨道上。 每颗卫星都能够提供至少每秒8千兆位的吞吐量,以使用其高吞吐量的Ku频段有效载荷为家庭和移动平台提供互联网接入。该卫星仍在工作。
2D轨道图
3D轨道图
轨道高度分析图
轨道倾角分析图
轨道综合分析图
查看轨道综合分析图